Preview of NWS' New Version of Forecast
This preview is not operational and should not be used for support decisions.

Regional Weather Roundup (RWR)

Issued by Cleveland, OH (CLE)

                            
000
ASUS41 KCLE 170512
RWRCLE
OHIO REGIONAL WEATHER ROUNDUP
NATIONAL WEATHER SERVICE WILMINGTON, OH
1200 AM EST MON DEC 17 2018

NOTE: "FAIR" INDICATES FEW OR NO CLOUDS BELOW 12,000 FEET WITH NO
SIGNIFICANT WEATHER AND/OR OBSTRUCTIONS TO VISIBILITY.

OHZ001>008-015>018-024>027-034-035-043-044-170600-
   NORTHWEST OHIO
  
CITY           SKY/WX    TMP DP  RH WIND       PRES   REMARKS
DEFIANCE       FAIR      35  31  85 SW7       30.03S WCI  29          
FINDLAY        FAIR      36  31  82 W10       30.02R                  
TOLEDO EXPRESS FAIR      36  28  73 SW10      29.99F                  
TOLEDO EXEC    FAIR      34  29  82 SW9       30.00F WCI  27          
LIMA           FAIR      35  30  82 W8        30.04S WCI  29          
$$
 
OHZ009>014-019>023-028>033-038-089-170600-
   NORTHEAST OHIO
  
CITY           SKY/WX    TMP DP  RH WIND       PRES   REMARKS
CLE-HOPKINS    FAIR      37  34  89 SW9       30.00F                  
CLE-LAKEFRONT  FAIR      37  33  85 SW12      29.97F                  
CUY CO. ARPT   NOT AVBL                                               
LORAIN-ELYRIA  FAIR      34  29  82 W7        29.99F WCI  28          
ASHTABULA      FAIR      34  33  96 SW6       29.95F FOG     WCI  29  
AKRON-CANTON   MOCLDY    36  33  89 W8        29.99F                  
WOOSTER        FAIR      35  34  96 SW6       29.99F FOG              
MANSFIELD      FAIR      37  33  85 SW9       29.99F                  
YOUNGSTOWN     CLOUDY    37  33  85 SW7       29.96F                  
$$
 
OHZ042-051>053-060>062-070>072-077>081-170600-
  SOUTHWEST OHIO
  
CITY           SKY/WX    TMP DP  RH WIND       PRES   REMARKS
CINC-COVINGTON FAIR      36  34  92 SW3       30.11F FOG              
CINC-LUNKEN    FAIR      36  35  96 S6        30.13F FOG              
HAMILTON       FOG       35  32  88 CALM      30.11F VSB 1/4          
DAYTON         FAIR      35  33  92 SW9       30.08F WCI  28          
WRIGHT-PAT AFB FOG       33  32  96 SW7       30.08F VSB 3/4 WCI  27  
DAYTON GENERAL FOG       38  37  97 S6        30.08F VSB 1/4          
WILMINGTON     CLOUDY    39  37  92 W9        30.09F FOG              
$$

OHZ036-037-039>041-045>050-054>059-063>069-073>076-082>088-170600-
  CENTRAL AND SOUTHEAST OHIO
  
CITY           SKY/WX    TMP DP  RH WIND       PRES   REMARKS
COLUMBUS       FAIR      39  37  92 SW6       30.05F                  
OSU AIRPORT    FAIR      37  34  89 SW7       30.05F                  
BOLTON FIELD   FAIR      36  35  99 SW7       30.06F FOG              
RICKENBACK AFB FAIR      36  35  99 SW5       30.07S FOG              
NEWARK         FAIR      41  38  89 SW7       30.04F FOG              
MARION         FAIR      36  32  85 W7        30.03F                  
LANCASTER      FAIR      40  38  93 W10       30.07S                  
ZANESVILLE     CLOUDY    40  36  86 W7        30.04F                  
NEW PHILLY     MOCLDY    37  34  89 CALM      30.02F                  
$$